Location: Brooks Farm Pond
(32.9618°N, 86.0700°W)
Time: 21:35:11
(UTC+00:00)

NOSS 3-3 (C) - Pass Details

Date: 29 October 2020
Orbit: 827 x 1385 km, 63.5° (Epoch: 29 November)

Event Time Altitude Azimuth Distance (km) Brightness Sun altitude
Rises 23:21:02 0° 204° (SSW) 3,356 7.4 -6.1°
Reaches altitude 10° 23:23:24 10° 202° (SSW) 2,445 6.6 -6.5°
Maximum altitude 23:28:58 76° 118° (ESE) 911 3.8 -7.7°
Drops below altitude 10° 23:35:09 10° 33° (NNE) 2,694 5.9 -9.0°
Sets 23:37:52 0° 32° (NNE) 3,724 6.6 -9.5°
